Back to catalog

ISIS 1 DEB

AlivePO
NORAD 36301·DEBRIS·🇨🇦 Canada

Launched Jan 30, 1969 from Vandenberg Space Force Base

Loading…

Next Passes (next 24 hours)

TLE

FreshSource: Space-Track

Epoch: Sep 13, 2026, 11:36 UTC

1 36301U 69009D   26256.48380515  .00004025  00000-0  21062-2 0  9996
2 36301  88.3651  79.2107 1249402 298.9352  73.8765 12.28600239724734

Track ISIS 1 DEB in real time with AllMySat

Download on the App Store